contact:dominique.lefevre@mio.osupytheas.fr, maurice.libes@osupytheas.fr
Project:EMSO Ligure-ouest http://www.emso-fr.org/EMSO-France
Sensor Aquadopp, line 13 Serial AQD14315 
DOI : "https://doi.org/10.17882/74513; https://doi.org/10.17882/83244" 
Title:EMSO Ligure Ouest : Data ligne ALBATROSS capteur AQUADOPP - deploiement 2021
Id,Date,Profondeur,Latitude,Longitude,X_East,Y_North,Z_Up,Amplitude_X,Amplitude_Y,Amplitude_Z,Batterie,SoundSpeed,Heading,Pitch,Roll,Pressure,Temperature,Speed,Direction
, , m, degrees North, degrees East, m.s-1, m.s-1,m.s-1, 1, 1, 1, Volt, m.s-1, degree, degree, degree, dbar, degree_C, m.s-1, degree
11,2022-02-26T22:00:00,2200.0,42.79,6.0312,-0.03,0.003,0.015,57.0,60.0,61.0,12.3,1504.2,293.2,-0.7,0.0,2192.817,13.16,0.03,275.7
11,2022-02-26T22:30:00,2200.0,42.79,6.0312,-0.031,0.0,0.01,58.0,62.0,62.0,12.3,1504.2,291.1,-0.8,-0.3,2192.763,13.16,0.03,270.0
11,2022-02-26T23:00:00,2200.0,42.79,6.0312,-0.021,-0.016,-0.012,55.0,58.0,63.0,12.2,1504.2,291.3,-0.8,0.0,2192.824,13.16,0.026,232.7
11,2022-02-26T23:30:00,2200.0,42.79,6.0312,-0.015,0.001,-0.004,59.0,59.0,60.0,12.3,1504.2,292.6,-0.5,-0.3,2192.765,13.16,0.015,273.8
11,2022-02-27T00:00:00,2200.0,42.79,6.0312,-0.012,-0.009,0.002,57.0,59.0,62.0,12.3,1504.2,289.5,-0.7,-0.2,2192.802,13.16,0.015,233.1
11,2022-02-27T00:30:00,2200.0,42.79,6.0312,-0.006,0.004,0.0,58.0,61.0,59.0,12.3,1504.2,289.5,-0.7,-0.4,2192.82,13.16,0.007,303.7
11,2022-02-27T01:00:00,2200.0,42.79,6.0312,-0.02,-0.005,0.011,58.0,62.0,60.0,12.3,1504.2,289.2,-0.4,-0.4,2192.851,13.16,0.02,256.0
11,2022-02-27T01:30:00,2200.0,42.79,6.0312,-0.022,0.002,-0.003,60.0,64.0,62.0,12.3,1504.2,291.9,-0.9,0.0,2192.907,13.16,0.022,275.2
11,2022-02-27T02:00:00,2200.0,42.79,6.0312,-0.022,0.006,0.001,57.0,61.0,67.0,12.2,1504.2,290.8,-0.6,-0.1,2192.915,13.16,0.022,285.3
11,2022-02-27T02:30:00,2200.0,42.79,6.0312,-0.008,0.007,0.004,58.0,60.0,64.0,12.3,1504.2,293.7,-0.8,-0.3,2192.91,13.16,0.01,311.2
11,2022-02-27T03:00:00,2200.0,42.79,6.0312,-0.007,0.008,0.003,59.0,62.0,61.0,12.3,1504.2,293.8,-0.5,-0.2,2192.963,13.16,0.01,318.8
11,2022-02-27T03:30:00,2200.0,42.79,6.0312,-0.02,0.0,-0.007,60.0,64.0,62.0,12.2,1504.2,294.7,-0.4,-0.1,2192.967,13.16,0.02,270.0
11,2022-02-27T04:00:00,2200.0,42.79,6.0312,-0.007,0.0,0.009,59.0,59.0,62.0,12.2,1504.2,292.1,-0.7,-0.2,2192.925,13.16,0.007,270.0
11,2022-02-27T04:30:00,2200.0,42.79,6.0312,-0.024,-0.002,-0.001,58.0,60.0,63.0,12.2,1504.2,292.5,-0.4,-0.2,2193.003,13.16,0.024,265.2
11,2022-02-27T05:00:00,2200.0,42.79,6.0312,-0.008,0.006,0.007,59.0,60.0,62.0,12.2,1504.2,291.1,-0.8,0.0,2193.03,13.16,0.01,306.9
11,2022-02-27T05:30:00,2200.0,42.79,6.0312,-0.002,-0.006,0.008,58.0,64.0,64.0,12.3,1504.2,291.4,-0.4,-0.4,2193.014,13.16,0.006,198.4
11,2022-02-27T06:00:00,2200.0,42.79,6.0312,-0.011,0.0,0.0,56.0,61.0,59.0,12.2,1504.2,288.5,-0.6,-0.2,2193.024,13.16,0.011,270.0
11,2022-02-27T06:30:00,2200.0,42.79,6.0312,-0.019,-0.025,0.007,58.0,59.0,65.0,12.3,1504.2,291.2,-0.4,-0.1,2192.982,13.16,0.031,217.2
11,2022-02-27T07:00:00,2200.0,42.79,6.0312,-0.019,-0.008,0.0,58.0,62.0,63.0,12.3,1504.2,288.8,-0.8,-0.3,2192.981,13.16,0.02,247.2
11,2022-02-27T07:30:00,2200.0,42.79,6.0312,-0.018,-0.019,0.004,60.0,62.0,63.0,12.2,1504.2,288.0,-0.5,-0.1,2192.95,13.16,0.026,223.5
11,2022-02-27T08:00:00,2200.0,42.79,6.0312,-0.022,-0.018,0.0,57.0,62.0,64.0,12.2,1504.2,288.7,-0.7,-0.3,2192.945,13.16,0.028,230.7
11,2022-02-27T08:30:00,2200.0,42.79,6.0312,-0.013,-0.009,0.013,60.0,64.0,66.0,12.2,1504.2,288.1,-0.5,-0.2,2192.938,13.16,0.015,235.3
11,2022-02-27T09:00:00,2200.0,42.79,6.0312,-0.018,-0.016,0.003,59.0,58.0,61.0,12.2,1504.2,287.8,-0.5,-0.4,2192.937,13.16,0.024,228.4
11,2022-02-27T09:30:00,2200.0,42.79,6.0312,-0.027,-0.029,-0.005,61.0,62.0,65.0,12.2,1504.2,288.5,-0.5,-0.3,2192.902,13.16,0.039,223.0
11,2022-02-27T10:00:00,2200.0,42.79,6.0312,-0.021,-0.029,0.001,63.0,65.0,67.0,12.2,1504.2,284.1,-0.6,0.0,2192.91,13.16,0.035,215.9
11,2022-02-27T10:30:00,2200.0,42.79,6.0312,-0.026,-0.019,0.004,59.0,61.0,63.0,12.3,1504.2,286.0,-0.7,0.0,2192.873,13.16,0.032,233.8
11,2022-02-27T11:00:00,2200.0,42.79,6.0312,-0.033,-0.03,0.01,57.0,63.0,59.0,12.2,1504.2,291.2,-0.5,-0.1,2192.891,13.16,0.044,227.7
11,2022-02-27T11:30:00,2200.0,42.79,6.0312,-0.018,-0.016,0.001,59.0,60.0,61.0,12.2,1504.2,296.0,-0.9,0.0,2192.874,13.16,0.024,228.4
11,2022-02-27T12:00:00,2200.0,42.79,6.0312,-0.02,-0.011,0.021,57.0,60.0,60.0,12.2,1504.2,297.8,-0.4,-0.3,2192.843,13.16,0.022,241.2
11,2022-02-27T12:30:00,2200.0,42.79,6.0312,-0.032,-0.009,0.014,57.0,63.0,61.0,12.3,1504.2,296.1,-0.3,-0.1,2192.853,13.16,0.033,254.3
11,2022-02-27T13:00:00,2200.0,42.79,6.0312,-0.029,-0.019,0.014,60.0,64.0,66.0,12.3,1504.2,294.7,-0.4,-0.4,2192.859,13.16,0.034,236.8
11,2022-02-27T13:30:00,2200.0,42.79,6.0312,-0.01,-0.014,0.014,57.0,64.0,61.0,12.2,1504.2,295.3,-0.6,-0.1,2192.876,13.16,0.017,215.5
11,2022-02-27T14:00:00,2200.0,42.79,6.0312,-0.023,-0.011,0.01,59.0,56.0,64.0,12.3,1504.2,298.3,-0.5,-0.3,2192.842,13.16,0.025,244.4
11,2022-02-27T14:30:00,2200.0,42.79,6.0312,-0.02,-0.007,0.016,60.0,62.0,62.0,12.3,1504.2,299.2,-0.4,-0.4,2192.89,13.16,0.021,250.7
11,2022-02-27T15:00:00,2200.0,42.79,6.0312,-0.017,-0.005,0.003,56.0,59.0,62.0,12.2,1504.2,298.6,-0.4,-0.1,2192.863,13.16,0.017,253.6
11,2022-02-27T15:30:00,2200.0,42.79,6.0312,-0.019,-0.005,0.003,57.0,60.0,60.0,12.2,1504.2,294.3,-0.6,-0.4,2192.897,13.16,0.019,255.3
11,2022-02-27T16:00:00,2200.0,42.79,6.0312,-0.019,-0.003,0.02,56.0,60.0,67.0,12.3,1504.2,294.9,-0.7,0.0,2192.882,13.16,0.019,261.0
11,2022-02-27T16:30:00,2200.0,42.79,6.0312,-0.015,-0.019,0.018,58.0,62.0,60.0,12.2,1504.2,297.1,-0.5,-0.3,2192.929,13.16,0.024,218.3
11,2022-02-27T17:00:00,2200.0,42.79,6.0312,-0.004,-0.002,0.002,59.0,62.0,62.0,12.2,1504.2,297.4,-0.4,-0.1,2192.92,13.16,0.004,243.4
11,2022-02-27T17:30:00,2200.0,42.79,6.0312,-0.013,-0.027,0.015,58.0,64.0,64.0,12.3,1504.2,292.8,-0.7,-0.2,2192.944,13.16,0.029,205.7
11,2022-02-27T18:00:00,2200.0,42.79,6.0312,-0.004,-0.02,-0.004,57.0,59.0,61.0,12.2,1504.2,293.1,-0.7,-0.3,2192.907,13.16,0.02,191.3
11,2022-02-27T18:30:00,2200.0,42.79,6.0312,-0.01,-0.022,0.003,57.0,62.0,64.0,12.2,1504.2,296.1,-0.4,-0.4,2192.881,13.16,0.024,204.4
11,2022-02-27T19:00:00,2200.0,42.79,6.0312,-0.009,-0.024,0.014,58.0,60.0,62.0,12.2,1504.2,295.9,-0.4,-0.1,2192.913,13.16,0.025,200.6
11,2022-02-27T19:30:00,2200.0,42.79,6.0312,-0.007,-0.018,0.012,60.0,61.0,63.0,12.2,1504.2,297.2,-0.6,0.0,2192.884,13.16,0.019,201.2
11,2022-02-27T20:00:00,2200.0,42.79,6.0312,-0.015,-0.025,0.017,58.0,61.0,62.0,12.2,1504.2,295.5,-0.6,-0.4,2192.904,13.16,0.029,211.0
11,2022-02-27T20:30:00,2200.0,42.79,6.0312,-0.016,-0.021,0.011,57.0,62.0,62.0,12.2,1504.2,295.3,-0.7,-0.3,2192.828,13.16,0.026,217.3
11,2022-02-27T21:00:00,2200.0,42.79,6.0312,-0.007,-0.018,-0.001,58.0,62.0,60.0,12.2,1504.2,298.0,-0.3,-0.3,2192.834,13.16,0.019,201.2
